Location: Hermaringen
(48.5952°N, 10.2585°E)
Time: 10:39:54
(UTC+00:00)

A-11 Canister half - Pass Details

Date: 18 February 2026
Orbit: 1513 x 1687 km, 47.2° (Epoch: 11 March)

Event Time Altitude Azimuth Distance (km) Brightness Sun altitude
Exits shadow 03:19:41 24° 186° (S) 2,813 10.1 -30.5°
Drops below altitude 10° 03:23:41 10° 166° (SSE) 3,719 11.0 -29.8°
Sets 03:27:06 0° 156° (SSE) 4,679 11.6 -29.3°
